Regional Weather Roundup
Issued by NWS Northern Indiana

Home | Current Version | Previous Version | Text Only | Print | Product List | Glossary Off
Versions: 1 2 3 4 5 6 7 8 9 10 11 12 13 14 15 16 17 18 19 20 21 22 23 24 25 26 27 28 29 30 31 32 33 34 35 36 37 38 39 40 41 42 43 44 45 46 47 48 49 50

000
ASUS43 KIWX 232310
RWRIWX

KIWX WEATHER ROUNDUP
NATIONAL WEATHER SERVICE NORTHERN INDIANA
700 PM EDT THU OCT 23 2014

NOTE: "FAIR" INDICATES FEW OR NO CLOUDS BELOW 12,000 FEET WITH NO
SIGNIFICANT WEATHER AND/OR OBSTRUCTIONS TO VISIBILITY.

* THESE STATIONS ARE NOT UNDER NWS QUALITY CONTROL. THEY ALSO MAY NOT
  REPORT WEATHER SUCH AS PRECIPITATION OR FOG.

INZ001>027-240000-
NORTHERN INDIANA

CITY           SKY/WX    TMP DP  RH WIND       PRES   REMARKS
GARY*          MOCLDY    57  39  51 S6        30.09F
VALPARAISO     CLOUDY    54  40  59 S3        30.10S
MICHIGAN CITY* CLOUDY    54  37  54 SE3       30.10R
LAPORTE*       CLOUDY    55  42  60 CALM      30.11S
KNOX*          CLOUDY    53  40  61 S5        30.10S
SOUTH BEND     CLOUDY    54  41  61 S5        30.11F
ELKHART*       CLEAR     50  39  66 SE8       30.09F
GOSHEN         MOCLDY    51  41  68 S3        30.10F
MONTICELLO*    CLOUDY    53  42  65 S3        30.11F
LOGANSPORT*    CLOUDY    48  41  76 SW5       30.13F
ROCHESTER*     CLOUDY    55  43  62 CALM      30.12S
WARSAW*        CLOUDY    52  41  66 CALM      30.11F
ANGOLA*        CLEAR     48  43  81 CALM      30.12S
FORT WAYNE     CLOUDY    52  39  61 CALM      30.14S
HUNTINGTON*    CLOUDY    54  40  60 CALM      30.13S
PERU/GRISSOM   MOCLDY    51  47  87 S7        30.11F
MARION*        MOCLDY    51  38  61 CALM      30.14S

$$
INZ028>050-240000-
CENTRAL INDIANA

CITY           SKY/WX    TMP DP  RH WIND       PRES   REMARKS
LAFAYETTE      CLOUDY    52  43  71 CALM      30.12S
KOKOMO*        CLOUDY    52  43  71 SE5       30.13F
MUNCIE*        MOCLDY    52  41  66 CALM      30.14S
INDIANAPOLIS   CLOUDY    55  38  52 SE3       30.13F

$$
MIZ043>046-050>051-056>058-064>065-071>073-077>080-240000-
SOUTHWEST LOWER MICHIGAN

CITY           SKY/WX    TMP DP  RH WIND       PRES   REMARKS
BATTLE CREEK   MOCLDY    50  38  63 SW6       30.12R
BENTON HARBOR  CLOUDY    52  41  66 SE5       30.09F
COLDWATER*     MOCLDY    49  39  69 CALM      30.11S
HILLSDALE*     PTCLDY    44  37  77 CALM      30.12S
HOLLAND        CLOUDY    52  43  71 CALM      30.10F
GRAND RAPIDS   CLOUDY    52  40  63 S3        30.10S
KALAMAZOO      MOCLDY    52  39  61 S5        30.12S
STURGIS*       CLOUDY    50  41  71 SW3       30.12S
THREE RIVERS*  FAIR      50  41  70 CALM      30.12S

$$
OHZ001>008-015>018-024>025-240000-
NORTHWEST OHIO

CITY           SKY/WX    TMP DP  RH WIND       PRES   REMARKS
WAUSEON*       FAIR      48  37  66 S3        30.12F
DEFIANCE       MOCLDY    49  40  71 CALM      30.13F
FINDLAY        CLEAR     52  39  61 CALM      30.13F HAZE
TOLEDO EXPRESS CLEAR     49  39  68 CALM      30.12F
TOLEDO METCALF CLEAR     51  38  60 S3        30.14F
LIMA           PTCLDY    49  40  71 CALM      30.13F

$$
AND FOR LAKE MICHIGAN COASTAL AND OPEN LAKE BUOY OBSERVATIONS

STATION/POSITION TEMP    WIND        PRES    VSBY  WAVE
                 AIR SEA DIR/SP/G                  HT/PER
                 (F)     (DEG/KT/KT) (MB)    (MI)  (FT/S)
CALUMET HARBOR    58     180/  6/  9 1017.3F
MICHIGAN CITY     56     170/  7/  9   N/A
SAINT JOSEPH      53                 1019.3S
SOUTH LAKE BUOY   55 54  170/ 12/ 14 1018.6F         2/ 4

$$
&&



USA.gov is the U.S. government's official web portal to all federal, state and local government web resources and services.